TimeCST,TemperatureF,Dew PointF,Humidity,Sea Level PressureIn,VisibilityMPH,Wind Direction,Wind SpeedMPH,Gust SpeedMPH,PrecipitationIn,Events,Conditions,WindDirDegrees,DateUTC
12:55 AM,31.1,30.6,98,29.82,3.0,Calm,Calm,-,N/A,,Overcast,0,2013-01-28 06:55:00
1:20 AM,30.2,30.2,100,29.82,2.5,Calm,Calm,-,N/A,,Overcast,0,2013-01-28 07:20:00
1:35 AM,30.2,30.2,100,29.82,2.0,Calm,Calm,-,N/A,,Overcast,0,2013-01-28 07:35:00
1:55 AM,31.1,30.7,99,29.82,2.0,Calm,Calm,-,N/A,,Overcast,0,2013-01-28 07:55:00
2:08 AM,32.0,30.2,93,29.82,2.5,Calm,Calm,-,N/A,,Overcast,0,2013-01-28 08:08:00
2:23 AM,32.0,30.2,93,29.82,2.5,Calm,Calm,-,N/A,,Light Freezing Drizzle,0,2013-01-28 08:23:00
2:55 AM,31.3,31.1,99,29.81,2.5,Calm,Calm,-,0.00,,Light Freezing Drizzle,0,2013-01-28 08:55:00
2:58 AM,32.0,30.2,93,29.81,3.0,Calm,Calm,-,N/A,,Light Freezing Drizzle,0,2013-01-28 08:58:00
3:01 AM,32.0,30.2,93,29.81,3.0,Calm,Calm,-,N/A,,Overcast,0,2013-01-28 09:01:00
3:55 AM,31.5,31.3,99,29.81,3.0,Calm,Calm,-,0.00,,Overcast,0,2013-01-28 09:55:00
4:55 AM,31.5,31.3,99,29.82,3.0,Calm,Calm,-,N/A,,Overcast,0,2013-01-28 10:55:00
5:55 AM,31.5,31.3,99,29.83,4.0,Calm,Calm,-,N/A,,Overcast,0,2013-01-28 11:55:00
6:53 AM,32.0,32.0,100,29.88,5.0,Calm,Calm,-,N/A,,Overcast,0,2013-01-28 12:53:00
6:55 AM,31.8,31.3,98,29.87,5.0,Calm,Calm,-,N/A,,Overcast,0,2013-01-28 12:55:00
7:55 AM,32.0,32.0,100,29.89,6.0,WNW,3.5,-,N/A,,Overcast,300,2013-01-28 13:55:00
8:55 AM,32.0,32.0,100,29.90,6.0,Calm,Calm,-,N/A,,Overcast,0,2013-01-28 14:55:00
9:55 AM,33.8,32.0,93,29.93,7.0,NW,3.5,-,N/A,,Overcast,320,2013-01-28 15:55:00
10:55 AM,33.8,32.0,93,29.95,7.0,Calm,Calm,-,N/A,,Overcast,0,2013-01-28 16:55:00
11:55 AM,33.8,32.0,93,29.94,10.0,WNW,5.8,-,N/A,,Overcast,300,2013-01-28 17:55:00
12:15 PM,33.8,32.0,93,29.93,10.0,NNW,6.9,-,N/A,,Overcast,340,2013-01-28 18:15:00
12:55 PM,33.8,31.3,90,29.92,10.0,NW,3.5,-,0.02,,Overcast,310,2013-01-28 18:55:00
1:26 PM,33.8,30.2,87,29.92,10.0,Calm,Calm,-,N/A,,Overcast,0,2013-01-28 19:26:00
1:55 PM,33.8,30.2,87,29.92,10.0,South,3.5,-,N/A,,Overcast,190,2013-01-28 19:55:00
2:55 PM,33.8,32.0,93,29.92,10.0,East,4.6,-,N/A,,Overcast,90,2013-01-28 20:55:00
3:55 PM,33.8,30.2,87,29.94,10.0,SSE,5.8,-,N/A,,Overcast,150,2013-01-28 21:55:00
4:55 PM,33.8,32.0,93,29.93,10.0,East,6.9,-,N/A,,Overcast,90,2013-01-28 22:55:00
5:55 PM,33.8,32.0,93,29.92,10.0,East,5.8,-,N/A,,Overcast,100,2013-01-28 23:55:00
6:55 PM,33.8,32.0,93,29.91,10.0,SE,6.9,-,N/A,,Overcast,130,2013-01-29 00:55:00
7:55 PM,32.0,30.2,93,29.90,10.0,ESE,6.9,-,N/A,,Overcast,110,2013-01-29 01:55:00
8:39 PM,32.0,30.2,93,29.85,10.0,ESE,6.9,-,N/A,,Overcast,120,2013-01-29 02:39:00
8:55 PM,30.2,30.2,100,29.88,10.0,ESE,9.2,-,N/A,,Overcast,110,2013-01-29 02:55:00
9:55 PM,32.0,30.2,93,29.84,10.0,ESE,9.2,-,N/A,,Overcast,120,2013-01-29 03:55:00
10:16 PM,32.0,30.2,93,29.82,10.0,ESE,10.4,-,N/A,,Overcast,110,2013-01-29 04:16:00
10:38 PM,32.0,32.0,100,29.76,10.0,East,10.4,-,N/A,,Overcast,100,2013-01-29 04:38:00
10:55 PM,32.0,32.0,100,29.78,10.0,ESE,13.8,-,N/A,,Overcast,110,2013-01-29 04:55:00
11:38 PM,33.8,32.0,93,29.72,10.0,ESE,10.4,-,N/A,Rain,Light Rain,110,2013-01-29 05:38:00
11:52 PM,33.8,32.0,93,29.70,10.0,ESE,9.2,-,N/A,,Overcast,110,2013-01-29 05:52:00
11:55 PM,33.8,32.0,93,29.73,10.0,ESE,9.2,-,N/A,,Overcast,110,2013-01-29 05:55:00